Вернуться в каталог

THORAD DELTA 1 DEB

АктивенLEO
NORAD 9696·DEBRIS·🇺🇸 United States

Запущен Nov 15, 1974 с Vandenberg Space Force Base

Loading…

Ближайшие Пролёты (ближайшие 24 часа)

TLE

СвежийSource: Space-Track

Эпоха: Sep 14, 2026, 10:29 UTC

1 09696U 74089DV  26257.43737014  .00000165  00000-0  17633-2 0  9993
2 09696 100.8208  61.2517 0190308 133.4619 255.2953 12.22724092309948

Отслеживайте THORAD DELTA 1 DEB в реальном времени с AllMySat

Download on the App Store